This demonstration page uses our WeatherBlox Daily Observations layout. Learn more.

Left ArrowRight Arrow

Hourly Observations for June 26, 2021

Temp ( °F °C ) Dew Point ( °F °C ) Humidity (%) Winds ( mph kmh ) Pressure ( in mb ) Visibility ( mi km ) Precip ( " mm )
12:56 am 00:56 Clear 64 17.8 60 15.6 87 87 NNW 10 17 29.79 1009 10 16 0.00 0.00
1:56 am 01:56 Clear 63 17.2 58 14.4 84 84 NNW 12 19 29.76 1008 10 16 0.00 0.00
2:56 am 02:56 Clear 63 17.2 58 14.4 84 84 NNW 10 17 29.78 1008 10 16 0.00 0.00
3:16 am 03:16 Mostly Cloudy 63 17 57 14 83 83 NW 9 15 29.78 1008 10 16 0.00 0.00
3:56 am 03:56 Cloudy 63 17.2 58 14.4 84 84 NNW 9 15 29.79 1009 10 16 0.00 0.00
4:45 am 04:45 Cloudy 64 18 57 14 78 78 NNW 12 19 29.77 1008 10 16 0.00 0.00
4:56 am 04:56 Cloudy 64 17.8 57 13.9 78 78 NNW 10 17 29.78 1008 10 16 0.00 0.00
5:56 am 05:56 Cloudy 64 17.8 58 14.4 81 81 NNW 10 17 29.77 1008 10 16 0.00 0.00
6:27 am 06:27 Cloudy 63 17 57 14 83 83 NW 9 15 29.79 1009 10 16 0.00 0.00
6:56 am 06:56 Cloudy 63 17.2 58 14.4 84 84 NNW 9 15 29.81 1010 10 16 0.00 0.00
7:56 am 07:56 Cloudy 65 18.3 60 15.6 84 84 NW 10 17 29.83 1010 10 16 0.00 0.00
8:35 am 08:35 Cloudy 64 18 61 16 88 88 NNW 12 19 29.82 1010 10 16 0.00 0.00
8:56 am 08:56 Cloudy 66 18.9 60 15.6 81 81 NNW 13 20 29.84 1010 10 16 0.00 0.00
9:56 am 09:56 Cloudy 69 20.6 61 16.1 76 76 N 15 24 29.85 1011 10 16 0.00 0.00
10:56 am 10:56 Partly Cloudy 74 23.3 61 16.1 64 64 N 18 30 29.85 1011 10 16 0.00 0.00
11:56 am 11:56 Partly Cloudy 74 23.3 61 16.1 64 64 NNW 15 24 29.87 1011 10 16 0.00 0.00
12:33 pm 12:33 Mostly Cloudy 75 24 61 16 61 61 NNW 14 22 29.81 1009 10 16 0.00 0.00
12:47 pm 12:47 Mostly Cloudy 75 24 61 16 61 61 N 14 22 29.81 1009 10 16 0.00 0.00
12:56 pm 12:56 Mostly Cloudy 75 23.9 60 15.6 60 60 NNW 14 22 29.87 1012 10 16 0.00 0.00
1:56 pm 13:56 Cloudy 72 22.2 60 15.6 66 66 NW 16 26 29.88 1012 10 16 0.00 0.00
2:56 pm 14:56 Mostly Cloudy 74 23.3 60 15.6 62 62 N 15 24 29.88 1012 10 16 0.00 0.00
3:56 pm 15:56 Mostly Cloudy 76 24.4 59 15 56 56 NNW 12 19 29.88 1012 10 16 0.00 0.00
4:56 pm 16:56 Mostly Cloudy 78 25.6 59 15 52 52 N 15 24 29.88 1012 10 16 0.00 0.00
5:56 pm 17:56 Mostly Cloudy 76 24.4 59 15 56 56 N 12 19 29.88 1012 10 16 0.00 0.00
6:56 pm 18:56 Mostly Cloudy 76 24.4 60 15.6 58 58 NE 10 17 29.88 1012 10 16 0.00 0.00
7:56 pm 19:56 Sunny 74 23.3 60 15.6 62 62 ENE 7 11 29.89 1012 10 16 0.00 0.00
8:56 pm 20:56 Sunny 70 21.1 62 16.7 76 76 ENE 5 7 29.91 1013 10 16 0.00 0.00
9:56 pm 21:56 Clear 67 19.4 61 16.1 81 81 ESE 3 6 29.93 1013 10 16 0.00 0.00
10:56 pm 22:56 Clear 66 18.9 61 16.1 84 84 Calm 29.95 1014 10 16 0.00 0.00
11:56 pm 23:56 Clear 65 18.3 60 15.6 84 84 Calm 29.95 1014 10 16 0.00 0.00

Powered by AerisWeather